Alice Springs, Australia

8:12 AM ACST on November 12, 2019 (GMT +0930)
Alice Springs

Weather History for YBAS - October, 2019

Change the Weather History Date:

Sunday, October 13, 2019

  Actual Average Record
Temperature  
Mean Temperature 88 °F -  
Max Temperature 102 °F 90 °F 102 °F (2004)
Min Temperature 75 °F 61 °F 39 °F (2012)
Cooling Degree Days 24    
Growing Degree Days 38 (Base 50)    
Moisture  
Dew Point 24 °F    
Average Humidity 8    
Maximum Humidity 14    
Minimum Humidity 4    
Precipitation  
Precipitation 0.00 in 0.03 in - ()
Sea Level Pressure  
Sea Level Pressure 29.83 in    
Wind  
Wind Speed 10 mph ()    
Max Wind Speed 26 mph    
Max Gust Speed 38 mph    
Visibility 6.2 miles    
Events      
Averages and records for this station are not official NWS values.
T = Trace of Precipitation, MM = Missing Value Source: Averaged Metar Reports

Daily Weather History Graph

Daily Weather History Graph

Search for Another Location

Airport or City:

Astronomy

Oct. 13, 2019 Rise Set
Actual Time 6:03 AM ACST 6:38 PM ACST
Civil Twilight 5:40 AM ACST 7:01 PM ACST
Nautical Twilight 5:14 AM ACST 7:27 PM ACST
Astronomical Twilight 4:46 AM ACST 7:55 PM ACST
Moon 6:09 PM ACST (10/13) 5:49 AM ACST (10/13)
Length of Visible Light 13h 20m
Length of Day
12h 34m
Waxing Gibbous, 99% of the Moon is Illuminated
Oct 13
Waxing Gibbous
Oct 14
Full
Oct 21
Last Quarter
Oct 28
New
Nov 4
First Quarter

Hourly Weather History & Observations

Time (ACST) Temp. Dew Point Humidity Pressure Visibility Wind Dir Wind Speed Gust Speed Precip Events Conditions
12:00 AM 78 °F 24 °F 6% 29.76 in - Calm Calm - -   Clear
12:00 AM 78.8 °F 23.0 °F 13% 29.83 in 6.2 mi Calm Calm - N/A   Unknown
12:30 AM 78 °F 24 °F 6% 29.75 in - WNW 5.8 mph - -  
12:30 AM 78.8 °F 23.0 °F 13% 29.83 in 6.2 mi WNW 5.8 mph - N/A   Unknown
1:00 AM 77.0 °F 24.8 °F 14% 29.83 in 6.2 mi WNW 5.8 mph - N/A   Unknown
1:30 AM 75.2 °F 23.0 °F 14% 29.80 in 6.2 mi NW 5.8 mph - N/A   Unknown
2:00 AM 75.2 °F 23.0 °F 14% 29.80 in 6.2 mi NNW 6.9 mph - N/A   Unknown
2:30 AM 78 °F 25 °F 7% 29.72 in - North 8.1 mph - -  
2:30 AM 78.8 °F 24.8 °F 14% 29.80 in 6.2 mi North 8.1 mph - N/A   Unknown
3:00 AM 79 °F 24 °F 6% 29.72 in - NNW 10.4 mph - -   Clear
3:00 AM 78.8 °F 24.8 °F 14% 29.80 in 6.2 mi NNW 10.4 mph - N/A   Unknown
3:30 AM 84 °F 24 °F 5% 29.72 in - NNW 5.8 mph - -  
4:00 AM 86.0 °F 23.0 °F 10% 29.80 in 6.2 mi NNW 9.2 mph - N/A   Unknown
4:30 AM 84.2 °F 23.0 °F 11% 29.80 in 6.2 mi NW 11.5 mph - N/A   Unknown
5:00 AM 86.0 °F 23.0 °F 10% 29.80 in 6.2 mi NW 15.0 mph - N/A   Unknown
5:24 AM 77.0 °F 21.2 °F 12% 29.83 in 6.2 mi SE 6.9 mph - N/A   Unknown
5:30 AM 77 °F 22 °F 6% 29.76 in - SE 5.8 mph - -  
5:30 AM 77.0 °F 21.2 °F 12% 29.83 in 6.2 mi SE 5.8 mph - N/A   Unknown
6:00 AM 75.2 °F 23.0 °F 14% 29.86 in 6.2 mi SE 4.6 mph - N/A   Unknown
6:30 AM 78 °F 23 °F 6% 29.81 in - North 4.6 mph - -  
6:30 AM 78.8 °F 23.0 °F 13% 29.86 in 6.2 mi North 4.6 mph - N/A   Unknown
7:00 AM 80.6 °F 24.8 °F 13% 29.89 in 6.2 mi North 8.1 mph - N/A   Unknown
7:30 AM 84.2 °F 24.8 °F 11% 29.92 in 6.2 mi North 5.8 mph - N/A   Unknown
8:00 AM 89.6 °F 24.8 °F 10% 29.92 in 6.2 mi NNW 6.9 mph - N/A   Unknown
8:30 AM 92 °F 25 °F 4% 29.84 in - NW 15.0 mph - -  
8:30 AM 91.4 °F 24.8 °F 9% 29.92 in 6.2 mi NW 15.0 mph - N/A   Unknown
9:00 AM 93.2 °F 23.0 °F 8% 29.92 in 6.2 mi NW 16.1 mph - N/A   Unknown
9:30 AM 96 °F 25 °F 4% 29.84 in - West 10.4 mph - -  
9:30 AM 95.0 °F 24.8 °F 8% 29.92 in 6.2 mi West 10.4 mph - N/A   Unknown
10:00 AM 96.8 °F 26.6 °F 8% 29.92 in 6.2 mi West 13.8 mph 26.5 mph N/A   Unknown
10:25 AM 98.6 °F 23.0 °F 7% 29.92 in 6.2 mi NW 17.3 mph 32.2 mph N/A   Unknown
10:30 AM 98.6 °F 24.8 °F 7% 29.92 in 6.2 mi NW 23.0 mph 38.0 mph N/A   Unknown
10:56 AM 96.8 °F 23.0 °F 7% 29.89 in 6.2 mi West 21.9 mph - N/A   Unknown
11:00 AM 98.6 °F 24.8 °F 7% 29.89 in 6.2 mi NNW 18.4 mph - N/A   Unknown
11:20 AM 98.6 °F 24.8 °F 7% 29.89 in 6.2 mi NW 17.3 mph 31.1 mph N/A   Unknown
11:30 AM 100 °F 25 °F 4% 29.82 in - NW 23.0 mph - -  
11:30 AM 100.4 °F 24.8 °F 7% 29.89 in 6.2 mi NW 23.0 mph - N/A   Unknown
11:41 AM 100.4 °F 24.8 °F 7% 29.89 in 6.2 mi WNW 18.4 mph 29.9 mph N/A   Unknown
12:01 PM 100.4 °F 26.6 °F 7% 29.89 in 6.2 mi WNW 21.9 mph 33.4 mph N/A   Unknown
12:18 PM 102.2 °F 26.6 °F 7% 29.86 in 6.2 mi NNW 26.5 mph - N/A   Unknown
12:22 PM 102.2 °F 23.0 °F 6% 29.86 in 6.2 mi NW 24.2 mph 35.7 mph N/A   Unknown
12:30 PM 102 °F 26 °F 4% 29.80 in - WNW 21.9 mph - -  
12:30 PM 102.2 °F 26.6 °F 7% 29.86 in 6.2 mi WNW 21.9 mph - N/A   Unknown
12:41 PM 102.2 °F 23.0 °F 6% 29.86 in 6.2 mi WNW 20.7 mph 32.2 mph N/A   Unknown
1:00 PM 102.2 °F 23.0 °F 6% 29.86 in 6.2 mi WNW 21.9 mph - N/A   Unknown
1:16 PM 102.2 °F 23.0 °F 6% 29.86 in 6.2 mi WNW 19.6 mph 31.1 mph N/A   Unknown
1:30 PM 102.2 °F 23.0 °F 6% 29.83 in 6.2 mi NW 20.7 mph - N/A   Unknown
2:00 PM 102.2 °F 23.0 °F 6% 29.83 in 6.2 mi West 15.0 mph - N/A   Unknown
2:30 PM 101 °F 22 °F 4% 29.75 in - WSW 9.2 mph - -  
2:30 PM 100.4 °F 21.2 °F 6% 29.83 in 6.2 mi WSW 9.2 mph - N/A   Unknown
2:41 PM 102.2 °F 23.0 °F 6% 29.80 in 6.2 mi NW 17.3 mph - N/A   Unknown
3:00 PM 102 °F 23 °F 4% 29.74 in - NW 17.3 mph - -  
3:00 PM 102.2 °F 23.0 °F 6% 29.80 in 6.2 mi NW 17.3 mph - N/A   Unknown
3:30 PM 102 °F 23 °F 4% 29.73 in - NW 11.5 mph - -  
3:30 PM 102.2 °F 23.0 °F 6% 29.80 in 6.2 mi NW 11.5 mph - N/A   Unknown
4:00 PM 102.2 °F 23.0 °F 6% 29.80 in 6.2 mi WSW 12.7 mph - N/A   Unknown
4:30 PM 102.2 °F 23.0 °F 6% 29.80 in 6.2 mi West 10.4 mph - N/A   Unknown
5:00 PM 100.4 °F 21.2 °F 6% 29.80 in 6.2 mi WSW 9.2 mph - N/A   Unknown
5:30 PM 100 °F 25 °F 4% 29.73 in - WSW 6.9 mph - -  
5:30 PM 100.4 °F 24.8 °F 7% 29.80 in 6.2 mi WSW 6.9 mph - N/A   Unknown
6:00 PM 99 °F 24 °F 4% 29.74 in - WSW 10.4 mph - -   Clear
6:00 PM 98.6 °F 24.8 °F 7% 29.80 in 6.2 mi WSW 10.4 mph - N/A   Unknown
6:30 PM 97 °F 23 °F 4% 29.74 in - WNW 5.8 mph - -  
6:30 PM 96.8 °F 23.0 °F 7% 29.80 in 6.2 mi WNW 5.8 mph - N/A   Unknown
7:00 PM 95.0 °F 24.8 °F 8% 29.83 in 6.2 mi WNW 4.6 mph - N/A   Unknown
7:30 PM 95.0 °F 24.8 °F 8% 29.83 in 6.2 mi WNW 8.1 mph 21.9 mph N/A   Unknown
7:50 PM 98.6 °F 23.0 °F 7% 29.86 in 6.2 mi NW 21.9 mph 33.4 mph N/A   Unknown
8:00 PM 96.8 °F 23.0 °F 7% 29.86 in 6.2 mi North 12.7 mph - N/A   Unknown
8:30 PM 95 °F 24 °F 4% 29.78 in - NNW 9.2 mph - -  
8:30 PM 95.0 °F 24.8 °F 8% 29.86 in 6.2 mi NNW 9.2 mph - N/A   Unknown
9:00 PM 94 °F 24 °F 4% 29.81 in - SSE 15.0 mph - -   Clear
9:30 PM 92 °F 26 °F 4% 29.82 in - SSE 18.4 mph - -  
9:30 PM 93.2 °F 24.8 °F 9% 29.89 in 6.2 mi SSE 18.4 mph - N/A   Unknown
10:00 PM 91.4 °F 26.6 °F 10% 29.89 in 6.2 mi ESE 13.8 mph - N/A   Unknown
10:30 PM 87.8 °F 26.6 °F 11% 29.89 in 6.2 mi SSE 6.9 mph - N/A   Unknown
11:00 PM 87.8 °F 26.6 °F 11% 29.92 in 6.2 mi South 6.9 mph - N/A   Unknown
11:30 PM 87 °F 26 °F 5% 29.84 in - ESE 9.2 mph - -  
11:30 PM 87.8 °F 26.6 °F 11% 29.92 in 6.2 mi ESE 9.2 mph - N/A   Unknown